Flag for Micronesia Weather past 2 weeks in Colonia, Yap, Micronesia

Now
88 °F

Scattered clouds.


Feels Like: 102 °F
Forecast: 80 / 87 °F
Wind: 13 mph from East

Location: Yap Island

Current Time: Dec 22, 2014 at 2:39:40 PM

Latest Report: Dec 22, 2014 at 12:51 PM


Visibility: 12 mi

Pressure: 29.79 "Hg

Humidity: 75%

Dew point: 79 °F

Location of ColoniaLocation

Historic Weather in Colonia — Graph

°F

Colonia temperature yesterday

Maximum temperature yesterday: 87 °F (at 11:52 AM)
Minimum temperature yesterday: 78 °F (at 4:52 AM)
Average temperature yesterday: 82 °F

Past Weeks' High & Low Weather Summary

 TemperatureHumidityPressure
High88 °F (Dec 10, 12:52 PM)95% (Dec 11, 9:55 AM)29.94 "Hg (Dec 11, 9:55 AM)
Low76 °F (Dec 13, 3:53 AM)67% (Dec 9, 12:52 PM)29.73 "Hg (Dec 21, 3:53 PM)
Average82 °F86%29.82 "Hg
* Reported Dec 7 12:50 PM — Dec 22 12:51 PM, Colonia, Weather by CustomWeather, © 2014

Note: Actual official high and low records may vary slightly from our data, if they occured in-between our weather recording intervals... More about our weather records

Advertising

Colonia weather history for previous 24 hours

 ConditionsComfort  
Time TempWeatherWind HumidityBarometerVisibility
12:51 PM
Dec 22
88 °FScattered clouds.13 mph75%29.79 "Hg12 mi
11:52 AM87 °FScattered clouds.12 mph75%29.81 "Hg12 mi
10:51 AM87 °FScattered clouds.12 mph77%29.84 "Hg12 mi
9:51 AM86 °FScattered clouds.10 mph80%29.84 "Hg12 mi
8:50 AM84 °FPartly sunny.6 mph83%29.83 "Hg12 mi
7:53 AM82 °FPassing clouds.6 mph90%29.81 "Hg12 mi
6:50 AM79 °FPassing clouds.3 mph92%29.79 "Hg12 mi
5:50 AM79 °FPassing clouds.3 mph93%29.78 "Hg12 mi
4:50 AM80 °FPassing clouds.3 mph92%29.77 "Hg12 mi
3:50 AM81 °FPassing clouds.5 mph88%29.77 "Hg12 mi
2:50 AM81 °FPassing clouds.6 mph89%29.78 "Hg12 mi
1:52 AM81 °FPassing clouds.6 mph89%29.79 "Hg12 mi
12:50 AM80 °FPartly cloudy.3 mph87%29.80 "Hg12 mi
11:53 PM
Dec 21
81 °FPartly cloudy.6 mph87%29.80 "Hg12 mi
10:57 PM82 °FMostly cloudy.7 mph87%29.82 "Hg12 mi
9:53 PM81 °FMostly cloudy.6 mph90%29.82 "Hg12 mi
8:52 PM82 °FPartly cloudy.3 mph88%29.80 "Hg12 mi
7:52 PM83 °FPartly cloudy.9 mph83%29.78 "Hg12 mi
6:53 PM82 °FBroken clouds.7 mph84%29.76 "Hg12 mi
5:58 PM83 °FBroken clouds.6 mph83%29.75 "Hg12 mi
4:54 PM84 °FScattered showers. Partly sunny.7 mph81%29.73 "Hg12 mi
3:53 PM83 °FPartly sunny.8 mph78%29.73 "Hg12 mi
2:56 PM84 °FBroken clouds.7 mph81%29.74 "Hg12 mi
Weather by CustomWeather, © 2014

See weather overviewHow to use our weather pages